Waarnemingen

Advertentie
Mijn weer
Twenthe, Nederland (6290): temperatuur & dauwpunt: 15.02.2019 19:00:00 - 21.02.2019 19:00:00 (CET)Twenthe, Nederland (6290): temperatuur 5cm: 15.02.2019 19:00:00 - 21.02.2019 19:00:00 (CET)Twenthe, Nederland (6290): windsnelheid & windstoten: 15.02.2019 19:00:00 - 21.02.2019 19:00:00 (CET)Twenthe, Nederland (6290): windrichting: 15.02.2019 19:00:00 - 21.02.2019 19:00:00 (CET)Twenthe, Nederland (6290): luchtdruk: 15.02.2019 19:00:00 - 21.02.2019 19:00:00 (CET)Twenthe, Nederland (6290): zicht: 15.02.2019 19:00:00 - 21.02.2019 19:00:00 (CET)Twenthe, Nederland (6290): neerslag: 15.02.2019 19:00:00 - 21.02.2019 19:00:00 (CET)
Datum & Tijd tt [°C] td [°C] tt 5cm [°C] ff [km/u] ff [kn] fx [km/u] fx [kn] dd ppp [hPa] vv [km] rr [mm]
21.02.2019 19:00:00 9,4 8,5 9,3 14 8 25 14 W 1027,6 2,7 0,0
21.02.2019 18:00:00 10,2 7,5 10,0 11 6 25 14 WZW 1026,8 11 0,0
21.02.2019 17:00:00 10,8 7,1 10,5 14 8 32 18 ZW 1026,3 14 0,0
21.02.2019 16:00:00 11,5 6,9 11,2 22 12 36 19 W 1026,0 21 0,0
21.02.2019 15:00:00 11,8 7,1 11,8 18 10 32 18 WZW 1025,5 20 0,0
21.02.2019 14:00:00 11,5 7,2 11,7 18 10 36 19 WZW 1025,6 13 0,0
21.02.2019 13:00:00 10,8 7,2 11,8 18 10 25 14 ZW 1025,5 9 0,0
21.02.2019 12:00:00 8,6 7,0 8,9 14 8 25 14 ZW 1025,8 6 0,5
21.02.2019 11:00:00 8,7 5,4 9,2 18 10 25 14 ZW 1025,9 10 0,0
21.02.2019 10:00:00 7,9 5,1 7,8 18 10 25 14 ZW 1025,5 10 0,0
21.02.2019 09:00:00 7,1 4,3 7,2 18 10 29 16 ZZW 1025,0 11 0,0
21.02.2019 08:00:00 6,8 4,1 6,5 14 8 22 12 ZW 1024,5 12 0,0
21.02.2019 07:00:00 6,4 3,9 5,9 14 8 25 14 ZW 1024,2 11 0,0
21.02.2019 06:00:00 5,6 3,3 4,4 14 8 22 12 ZW 1024,1 10 0,0
21.02.2019 05:00:00 5,4 2,9 4,2 14 8 22 12 ZZW 1024,4 12 0,0
21.02.2019 04:00:00 6,1 3,2 5,1 18 10 25 14 ZW 1024,5 14 0,0
21.02.2019 03:00:00 6,7 3,4 5,9 18 10 32 18 ZW 1024,5 16 0,0
21.02.2019 02:00:00 5,5 2,5 4,3 11 6 18 10 ZZW 1024,2 17 0,0
21.02.2019 01:00:00 5,7 2,0 4,2 14 8 18 10 ZZW 1024,0 20 0,0
21.02.2019 00:00:00 5,8 2,0 4,1 11 6 18 10 ZZW 1023,9 20 0,0
20.02.2019 23:00:00 6,9 2,8 5,8 11 6 18 10 ZZW 1023,6 20 0,0
20.02.2019 22:00:00 6,5 2,5 4,8 11 6 18 10 Z 1023,5 22 0,0
20.02.2019 21:00:00 7,7 3,3 5,9 11 6 14 8 ZZW 1023,4 21 0,0
20.02.2019 20:00:00 7,8 3,2 6,6 11 6 14 8 ZZW 1023,5 25 0,0
20.02.2019 19:00:00 8,2 3,1 6,8 7 4 14 8 ZZW 1023,4 34 0,0
20.02.2019 18:00:00 9,7 3,1 9,1 11 6 25 14 ZW 1022,9 35 0,0
20.02.2019 17:00:00 10,2 3,8 10,1 14 8 29 16 ZW 1022,6 30 0,0
20.02.2019 16:00:00 10,7 4,0 11,0 14 8 - - ZW 1022,4 27 0,0
20.02.2019 15:00:00 10,7 3,7 11,3 14 8 25 14 ZZW 1022,3 23 0,0
20.02.2019 14:00:00 10,2 3,6 10,9 18 10 29 16 ZW 1022,5 24 0,0
20.02.2019 13:00:00 9,9 4,0 10,8 18 10 29 16 ZW 1022,6 26 0,0
20.02.2019 12:00:00 9,1 3,7 9,9 18 10 29 16 ZW 1022,6 23 0,0
20.02.2019 11:00:00 7,9 3,3 8,8 18 10 25 14 ZW 1022,1 20 0,0
20.02.2019 10:00:00 6,5 2,6 6,8 18 10 29 16 ZW 1021,9 17 0,0
20.02.2019 09:00:00 4,9 2,1 4,6 14 8 22 12 ZZW 1021,3 15 0,0
20.02.2019 08:00:00 4,1 2,0 3,5 11 6 18 10 ZZW 1020,8 13 0,0
20.02.2019 07:00:00 4,2 2,0 2,9 11 6 18 10 ZW 1020,5 13 0,0
20.02.2019 06:00:00 4,1 1,8 3,2 11 6 22 12 ZZW 1020,5 14 0,0
20.02.2019 05:00:00 4,9 2,3 4,2 11 6 18 10 ZZW 1020,4 17 0,0
20.02.2019 04:00:00 4,9 2,3 4,3 14 8 22 12 ZW 1020,2 19 0,0
20.02.2019 03:00:00 4,8 2,3 4,4 14 8 25 14 ZW 1020,3 20 0,0
20.02.2019 02:00:00 4,9 2,6 4,4 14 8 25 14 ZW 1020,3 17 0,0
20.02.2019 01:00:00 4,6 2,5 3,6 14 8 25 14 ZW 1020,2 17 0,0
20.02.2019 00:00:00 4,8 2,6 3,6 14 8 22 12 ZW 1020,2 18 0,0
19.02.2019 23:00:00 4,4 2,4 2,8 11 6 18 10 ZW 1020,1 17 0,0
19.02.2019 22:00:00 4,7 2,2 3,0 11 6 22 12 ZW 1020,0 20 0,0
19.02.2019 21:00:00 5,9 2,6 4,6 14 8 25 14 WZW 1019,8 22 0,0
19.02.2019 20:00:00 6,3 1,8 5,0 14 8 25 14 WZW 1019,4 35 0,0
19.02.2019 19:00:00 8,1 3,0 7,6 14 8 32 18 WZW 1019,1 35 0,0
19.02.2019 18:00:00 8,7 3,2 8,2 18 10 29 16 WZW 1018,6 42 0,0
19.02.2019 17:00:00 9,3 3,7 9,0 22 12 32 18 WZW 1018,3 34 0,0
19.02.2019 16:00:00 9,3 4,1 9,1 22 12 36 19 WZW 1018,0 29 0,0
19.02.2019 15:00:00 9,6 4,9 9,9 22 12 40 21 ZW 1017,7 25 0,0
19.02.2019 14:00:00 9,4 4,9 9,7 25 14 40 21 WZW 1017,4 27 0,0
19.02.2019 13:00:00 9,2 5,1 9,5 25 14 40 21 ZW 1017,7 17 0,0
19.02.2019 12:00:00 8,6 5,1 8,7 22 12 43 23 ZW 1017,7 17 0,0
19.02.2019 11:00:00 7,5 4,9 7,7 25 14 40 21 WZW 1017,7 14 0,0
19.02.2019 10:00:00 6,8 5,0 6,6 22 12 32 18 ZW 1017,1 12 0,0
19.02.2019 09:00:00 5,8 4,5 5,3 18 10 29 16 ZW 1016,9 8 0,0
19.02.2019 08:00:00 5,4 4,4 4,7 18 10 32 18 ZW 1016,4 7 0,0
19.02.2019 07:00:00 5,9 4,9 5,5 18 10 29 16 ZW 1015,6 6 0,0
19.02.2019 06:00:00 6,3 5,3 6,0 18 10 25 14 ZW 1015,4 5 0,0
19.02.2019 05:00:00 6,3 5,3 5,8 14 8 22 12 ZZW 1015,0 7 0,0
19.02.2019 04:00:00 6,4 5,5 5,8 11 6 18 10 ZW 1015,0 4,7 0,3
19.02.2019 03:00:00 7,0 5,1 6,7 14 8 22 12 WZW 1015,1 8 0,0
19.02.2019 02:00:00 7,4 3,1 7,0 14 8 29 16 WZW 1015,0 18 0,0
19.02.2019 01:00:00 6,6 2,0 5,0 11 6 18 10 ZZW 1014,4 21 0,0
19.02.2019 00:00:00 7,1 1,9 5,3 14 8 22 12 ZZW 1014,5 22 0,0
18.02.2019 23:00:00 7,0 2,0 5,3 14 8 14 8 Z 1014,5 19 0,0
18.02.2019 22:00:00 5,4 1,3 0,2 7 4 11 6 Z 1014,7 18 0,0
18.02.2019 21:00:00 4,4 1,0 -0,8 7 4 11 6 ZZW 1014,7 18 0,0
18.02.2019 20:00:00 4,5 1,5 -0,6 4 2 4 2 OZO 1014,5 20 0,0
18.02.2019 19:00:00 7,2 1,9 0,9 0 0 7 4 N 1014,9 30 0,0
18.02.2019 18:00:00 9,9 2,5 4,3 4 2 14 8 Z 1014,8 32 0,0
18.02.2019 17:00:00 13,1 3,0 12,2 11 6 18 10 Z 1014,7 29 0,0
18.02.2019 16:00:00 15,0 2,9 15,3 11 6 22 12 Z 1015,2 28 0,0
18.02.2019 15:00:00 15,2 2,7 15,9 14 8 25 14 ZZW 1015,7 23 0,0
18.02.2019 14:00:00 14,5 2,4 15,5 18 10 29 16 ZZW 1016,3 22 0,0
18.02.2019 13:00:00 13,6 2,2 15,2 14 8 25 14 ZZW 1017,1 27 0,0
18.02.2019 12:00:00 12,1 1,5 13,7 14 8 22 12 ZZW 1017,8 25 0,0
18.02.2019 11:00:00 11,2 1,2 11,9 14 8 22 12 ZZW 1018,3 24 0,0
18.02.2019 10:00:00 9,3 1,6 8,9 14 8 18 10 Z 1018,2 26 0,0
18.02.2019 09:00:00 3,6 1,2 0,9 7 4 7 4 ZZO 1018,8 23 0,0
18.02.2019 08:00:00 0,8 -1,6 -2,5 7 4 14 8 ZZO 1018,9 25 0,0
18.02.2019 07:00:00 4,2 -0,7 1,0 11 6 18 10 ZZO 1018,8 29 0,0
18.02.2019 06:00:00 4,9 -0,4 -2,4 11 6 11 6 ZZO 1019,2 33 0,0
18.02.2019 05:00:00 2,3 -0,8 -1,9 7 4 11 6 Z 1019,4 27 0,0
18.02.2019 04:00:00 4,6 -0,2 -1,1 4 2 11 6 Z 1019,3 29 0,0
18.02.2019 03:00:00 4,9 0,0 -1,4 4 2 11 6 ZZW 1019,4 30 0,0
18.02.2019 02:00:00 4,3 0,1 -0,8 4 2 11 6 ZZO 1019,7 33 0,0
18.02.2019 01:00:00 5,4 0,1 3,1 11 6 14 8 Z 1019,5 37 0,0
18.02.2019 00:00:00 7,8 0,8 5,9 11 6 25 14 Z 1019,4 36 0,0
17.02.2019 23:00:00 9,3 0,8 6,8 14 8 22 12 Z 1019,4 33 0,0
17.02.2019 22:00:00 8,5 1,1 5,6 14 8 22 12 Z 1019,4 27 0,0
17.02.2019 21:00:00 7,9 0,8 2,6 11 6 18 10 Z 1019,2 20 0,0
17.02.2019 20:00:00 8,9 2,3 -1,2 11 6 14 8 ZZO 1019,2 17 0,0
17.02.2019 19:00:00 5,6 2,2 0,3 7 4 11 6 ZZO 1019,1 17 0,0
17.02.2019 18:00:00 9,1 3,7 4,0 7 4 11 6 ZZO 1018,8 19 0,0
17.02.2019 17:00:00 13,5 3,9 12,0 11 6 18 10 ZZO 1019,0 19 0,0
17.02.2019 16:00:00 15,1 2,9 15,0 14 8 18 10 ZZO 1019,3 23 0,0
17.02.2019 15:00:00 15,9 2,4 16,7 11 6 14 8 ZZO 1019,6 23 0,0
17.02.2019 14:00:00 15,0 3,2 15,7 11 6 18 10 ZZO 1020,1 20 0,0
17.02.2019 13:00:00 14,1 3,2 15,6 11 6 22 12 ZZO 1020,8 20 0,0
17.02.2019 12:00:00 12,4 3,7 13,5 14 8 18 10 ZZO 1021,4 15 0,0
17.02.2019 11:00:00 9,9 3,0 10,9 11 6 18 10 ZZO 1021,9 16 0,0
17.02.2019 10:00:00 7,3 2,7 6,4 11 6 14 8 ZZO 1022,3 14 0,0
17.02.2019 09:00:00 3,2 0,7 -0,1 11 6 11 6 ZZO 1022,4 12 0,0
17.02.2019 08:00:00 1,0 -0,2 -3,7 11 6 11 6 ZZO 1022,7 10 0,0
17.02.2019 07:00:00 -1,5 -2,4 -4,2 7 4 11 6 ZZO 1022,7 6 0,0
17.02.2019 06:00:00 1,6 -0,1 -4,3 4 2 11 6 ZO 1022,9 10 0,0
17.02.2019 05:00:00 0,0 -0,2 -3,8 7 4 7 4 ZO 1023,3 6 0,0
17.02.2019 04:00:00 -0,3 -1,2 -3,6 4 2 7 4 ZO 1023,6 4,5 0,0
17.02.2019 03:00:00 0,8 -0,1 -3,0 4 2 7 4 ZO 1024,0 6 0,0
17.02.2019 02:00:00 0,1 -1,2 -3,1 7 4 11 6 ZO 1024,3 7 0,0
17.02.2019 01:00:00 1,0 0,1 -2,9 4 2 7 4 OZO 1024,4 7 0,0
17.02.2019 00:00:00 1,6 0,6 -2,7 4 2 4 2 ZO 1024,7 9 0,0
16.02.2019 23:00:00 2,4 1,2 -2,4 4 2 4 2 Z 1024,9 9 0,0
16.02.2019 22:00:00 2,7 1,1 -2,2 4 2 7 4 ZZO 1025,0 11 0,0
16.02.2019 21:00:00 4,9 1,8 -0,4 4 2 7 4 ZO 1024,9 12 0,0
16.02.2019 20:00:00 5,7 1,9 2,1 7 4 14 8 ZZO 1024,9 13 0,0
16.02.2019 19:00:00 7,5 2,5 3,7 7 4 14 8 Z 1024,9 17 0,0
16.02.2019 18:00:00 9,2 2,8 7,0 11 6 22 12 ZZW 1024,6 18 0,0
16.02.2019 17:00:00 11,9 3,2 10,9 14 8 25 14 ZZW 1024,6 21 0,0
16.02.2019 16:00:00 12,8 2,9 12,7 14 8 25 14 ZW 1024,9 24 0,0
16.02.2019 15:00:00 13,6 2,5 14,4 14 8 25 14 ZW 1024,7 24 0,0
16.02.2019 14:00:00 13,6 2,4 14,4 14 8 25 14 ZZW 1024,9 27 0,0
16.02.2019 13:00:00 13,3 2,5 15,0 14 8 25 14 Z 1025,1 23 0,0
16.02.2019 12:00:00 12,1 2,7 13,0 14 8 22 12 ZZW 1025,5 29 0,0
16.02.2019 11:00:00 10,0 2,0 10,6 14 8 25 14 ZW 1025,7 22 0,0
16.02.2019 10:00:00 8,2 1,1 7,9 14 8 22 12 ZZW 1025,5 26 0,0
16.02.2019 09:00:00 5,9 0,2 4,7 11 6 18 10 ZZW 1025,7 38 0,0
16.02.2019 08:00:00 4,2 -0,7 1,8 11 6 18 10 ZZW 1025,4 41 0,0
16.02.2019 07:00:00 4,5 -0,7 2,7 11 6 18 10 ZZW 1024,9 42 0,0
16.02.2019 06:00:00 5,1 -0,5 3,6 14 8 22 12 Z 1025,1 39 0,0
16.02.2019 05:00:00 5,1 -0,5 3,1 14 8 18 10 Z 1025,2 45 0,0
16.02.2019 04:00:00 4,4 -1,0 1,9 11 6 18 10 Z 1025,1 46 0,0
16.02.2019 03:00:00 4,9 -1,0 2,0 11 6 18 10 Z 1025,8 49 0,0
16.02.2019 02:00:00 6,3 -0,6 4,2 14 8 22 12 Z 1026,1 50 0,0
16.02.2019 01:00:00 7,5 -0,4 5,0 18 10 22 12 Z 1026,2 50 0,0
16.02.2019 00:00:00 6,4 -0,4 0,8 14 8 22 12 ZZO 1026,4 49 0,0
15.02.2019 23:00:00 1,2 0,9 -3,8 0 0 4 2 N 1026,9 12 0,0
15.02.2019 22:00:00 2,6 1,9 -2,1 0 0 4 2 N 1027,1 27 0,0
15.02.2019 21:00:00 2,6 1,4 -2,2 4 2 4 2 ZO 1027,5 37 0,0
15.02.2019 20:00:00 3,7 2,3 -0,9 0 0 4 2 N 1028,0 45 0,0
15.02.2019 19:00:00 5,4 2,2 0,1 4 2 4 2 NO 1028,3 49 0,0

tt = temperatuur
td = dauwpunt
tt 5cm = temperatuur 5cm
ff = windsnelheid
fx = windstoten
dd = windrichting
ppp = luchtdruk
vv = zicht
rr = neerslag

Weerstations in de omgeving